THORAD DELTA 1 DEB, 8165

Orbit data source: Space-Track

THORAD DELTA 1 DEB, 8165 is space debris in SSO originally from a launch on Fri, 15 Nov 1974 UTC launched from the Air Force Western Test Range (AFWTR). Debris objects in space refer to the collection of defunct objects orbiting the Earth. Examples of debris include non-operational satellites, rocket bodies, and fragments generated from explosions, collisions, or faulty payload assembly.

Loading next visibility...
Identifier
8165, 1974-089AF
Orbit
SSO
Country
Flag of USUS
Related business
Manufacturer
Unknown
Mission
Spacecraft
Bus & Motor
Unknown
Mass
Unknown
Launch date (UTC)
1974-11-15 (51 years ago)
Launch vehicle
Unknown
Launch site
Air Force Western Test Range (AFWTR)
Object type
Payload
Rocket body
Debris
Shape & HBR
Unknown shape, 0.1 m
Radar Cross Section
Small (<0.1 m²)

Expand to show TLE details & history
Last TLE update: 2 days ago

TLE from 2 days ago
0 THORAD DELTA 1 DEB
1 08165U 74089AF  25345.36273530 -.00000009  00000-0  22977-3 0  9996
2 08165 101.6910 288.2063 0017555 244.8505 266.6253 12.50176061329294
Epoch: 2025-12-11T08:42Z
TLE epoch observation values (Epoch: 2025-12-11T08:42:20.329Z)
Latitude
28.11733°
Longitude
-96.38138°
Altitude
1,467.764 km
Speed
7.131 km/s
True Right ascension
07h 38m 05s
True Declination
27° 59' 15"
Sunlit
Object was in full shadow at epoch
Visualization orbit readout
Latitude
Unknown
Longitude
Unknown
Altitude
Unknown
Speed
Unknown
Apparent Right ascension
Unknown
Apparent Declination
Unknown
Sunlit
N/A
Visualization observer readout
Local Sidereal Time
00:10:40
Azimuth
Unknown
Elevation
Unknown
Doppler factor
Unknown
Orbital elements
Apogee altitude
1,475.064 km
Perigee altitude
1,447.54 km
Semi-major axis
7,839.439 km
Eccentricity
0.00176
Inclination
101.691°
RAAN
288.2063°
Arg. of periapsis
244.8505°
True anomaly
266.42451°
Mean anomaly
266.6253°
Eccentric anomaly
266.5249°
Mean motion
3.12691 °/min
Orbital period
115.13 mins
BSTAR
0.00022977
Loading maneuver chart data...
Computing Atmospheric mass density...

Documentation

Showing up to 5 results
|